GW3140 Weather Reports


Display with metric or nautical units.
time (UTC)temp
F
wind
direction
speed
MPH
gust
MPH
rain 1hr
in
rain 24hr
in
rain mn
in
humidity
%
barometer
mb
20260508153511 54 241 2.0 6.0 0.00 0.00 0.00 44 1011.9
20260508153030 54 340 1.0 4.0 0.00 0.00 0.00 50 1011.9
20260508152513 54 275 1.0 7.0 0.00 0.00 0.00 48 1011.9
20260508152014 53 247 2.0 7.0 0.00 0.00 0.00 45 1012.1
20260508151534 53 245 2.0 7.0 0.00 0.00 0.00 46 1012.0
20260508151013 53 272 2.0 6.0 0.00 0.00 0.00 46 1012.0
20260508150514 53 202 1.0 6.0 0.00 0.00 0.00 44 1012.0
20260508150030 53 304 2.0 5.0 0.00 0.00 0.00 45 1012.0
20260508145513 52 347 2.0 7.0 0.00 0.00 0.00 50 1011.9
20260508145011 52 244 1.0 7.0 0.00 0.00 0.00 47 1012.1
20260508144528 52 281 3.0 7.0 0.00 0.00 0.00 46 1012.2
20260508144013 52 283 2.0 7.0 0.00 0.00 0.00 46 1012.1
20260508143514 52 280 1.0 7.0 0.00 0.00 0.00 50 1012.1
20260508143116 52 168 0.0 7.0 0.00 0.00 0.00 51 1012.2
20260508142511 51 251 3.0 7.0 0.00 0.00 0.00 52 1012.2
20260508142009 51 245 1.0 6.0 0.00 0.00 0.00 54 1012.2
20260508141528 50 272 1.0 7.0 0.00 0.00 0.00 47 1012.3
20260508141010 50 259 1.0 7.0 0.00 0.00 0.00 52 1012.3
20260508140510 50 233 2.0 7.0 0.00 0.00 0.00 54 1012.2
20260508140036 50 196 1.0 5.0 0.00 0.00 0.00 55 1012.2
20260508135510 50 299 1.0 4.0 0.00 0.00 0.00 57 1012.3
20260508135011 50 175 1.0 4.0 0.00 0.00 0.00 57 1012.3
20260508134532 50 274 1.0 6.0 0.00 0.00 0.00 59 1012.5
20260508134010 50 314 2.0 6.0 0.00 0.00 0.00 62 1012.4
20260508133514 49 273 2.0 6.0 0.00 0.00 0.00 63 1012.4
20260508133028 49 312 2.0 6.0 0.00 0.00 0.00 61 1012.4
20260508132512 49 338 2.0 4.0 0.00 0.00 0.00 66 1012.3
20260508132011 48 247 1.0 4.0 0.00 0.00 0.00 64 1012.4
20260508131528 48 245 1.0 4.0 0.00 0.00 0.00 65 1012.3
20260508131010 48 305 0.0 4.0 0.00 0.00 0.00 68 1012.3
20260508130511 48 297 1.0 4.0 0.00 0.00 0.00 63 1012.3
20260508130041 47 310 1.0 4.0 0.00 0.00 0.00 67 1012.2
20260508125512 47 266 1.0 6.0 0.00 0.00 0.00 68 1012.1
20260508125012 46 270 1.0 6.0 0.00 0.00 0.00 71 1012.1
20260508124534 46 274 1.0 4.0 0.00 0.00 0.00 72 1012.0
20260508124015 45 271 1.0 4.0 0.00 0.00 0.00 74 1012.0
20260508123512 45 185 0.0 3.0 0.00 0.00 0.00 75 1012.0
20260508123035 44 277 1.0 4.0 0.00 0.00 0.00 77 1012.1
20260508122511 43 189 1.0 4.0 0.00 0.00 0.00 77 1012.1
20260508122011 43 171 2.0 4.0 0.00 0.00 0.00 77 1012.1
20260508121533 42 272 0.0 3.0 0.00 0.00 0.00 78 1012.0
20260508121010 42 0 0.0 3.0 0.00 0.00 0.00 79 1011.9
20260508120513 41 208 0.0 2.0 0.00 0.00 0.00 80 1011.9
20260508120029 41 0 0.0 0.0 0.00 0.00 0.00 80 1011.9
20260508115510 40 0 0.0 0.0 0.00 0.00 0.00 82 1012.0
20260508115010 40 0 0.0 0.0 0.00 0.00 0.00 82 1011.9
20260508114528 39 0 0.0 0.0 0.00 0.00 0.00 83 1011.9
20260508114009 38 0 0.0 0.0 0.00 0.00 0.00 85 1012.0
20260508113512 38 0 0.0 0.0 0.00 0.00 0.00 87 1011.8
20260508113028 38 0 0.0 0.0 0.00 0.00 0.00 87 1011.7
20260508112516 37 0 0.0 0.0 0.00 0.00 0.00 88 1011.7
20260508112015 37 0 0.0 0.0 0.00 0.00 0.00 88 1011.7
20260508111529 37 0 0.0 0.0 0.00 0.00 0.00 88 1011.6
20260508111016 37 0 0.0 0.0 0.00 0.00 0.00 87 1011.7
20260508110514 37 0 0.0 0.0 0.00 0.00 0.00 87 1011.7
20260508110036 37 0 0.0 0.0 0.00 0.00 0.00 87 1011.6
20260508105513 37 0 0.0 0.0 0.00 0.00 0.00 87 1011.6
20260508105013 37 0 0.0 0.0 0.00 0.00 0.00 87 1011.6
20260508104532 37 0 0.0 0.0 0.00 0.00 0.00 86 1011.6
20260508104014 37 0 0.0 0.0 0.00 0.00 0.00 85 1011.6
20260508103513 37 0 0.0 0.0 0.00 0.00 0.00 85 1011.5
20260508103038 37 0 0.0 0.0 0.00 0.00 0.00 84 1011.5
20260508102512 38 0 0.0 0.0 0.00 0.00 0.00 84 1011.5
20260508102014 38 0 0.0 0.0 0.00 0.00 0.00 84 1011.5
20260508101538 38 0 0.0 0.0 0.00 0.00 0.00 84 1011.6
20260508101011 38 0 0.0 0.0 0.00 0.00 0.00 84 1011.5
20260508100513 38 0 0.0 0.0 0.00 0.00 0.00 84 1011.5
20260508100029 39 0 0.0 0.0 0.00 0.00 0.00 84 1011.6
20260508095513 39 0 0.0 0.0 0.00 0.00 0.00 84 1011.6
20260508095013 39 0 0.0 0.0 0.00 0.00 0.00 84 1011.6
20260508094543 39 0 0.0 0.0 0.00 0.00 0.00 83 1011.6
20260508094014 40 0 0.0 0.0 0.00 0.00 0.00 83 1011.6
20260508093513 40 0 0.0 0.0 0.00 0.00 0.00 83 1011.5
20260508093031 40 0 0.0 0.0 0.00 0.00 0.00 83 1011.6
20260508092517 40 0 0.0 0.0 0.00 0.00 0.00 83 1011.5
20260508092013 40 0 0.0 0.0 0.00 0.00 0.00 83 1011.5
20260508091547 40 0 0.0 0.0 0.00 0.00 0.00 83 1011.5
20260508091014 40 0 0.0 0.0 0.00 0.00 0.00 84 1011.4
20260508090514 41 0 0.0 0.0 0.00 0.00 0.00 84 1011.5
20260508090042 41 0 0.0 0.0 0.00 0.00 0.00 85 1011.5
20260508085517 41 0 0.0 2.0 0.00 0.00 0.00 85 1011.4
20260508085014 41 0 0.0 2.0 0.00 0.00 0.00 85 1011.4
20260508084530 41 256 0.0 2.0 0.00 0.00 0.00 85 1011.6
20260508084013 41 0 0.0 0.0 0.00 0.00 0.00 84 1011.7
20260508083514 41 0 0.0 0.0 0.00 0.00 0.00 84 1011.5
20260508083029 41 0 0.0 0.0 0.00 0.00 0.00 83 1011.5
20260508082517 41 0 0.0 0.0 0.00 0.00 0.00 82 1011.4
20260508082012 41 0 0.0 0.0 0.00 0.00 0.00 80 1011.5
20260508081538 41 0 0.0 0.0 0.00 0.00 0.00 81 1011.3
20260508081017 41 0 0.0 0.0 0.00 0.00 0.00 81 1011.3
20260508080514 41 0 0.0 0.0 0.00 0.00 0.00 81 1011.4
20260508080032 41 0 0.0 0.0 0.00 0.00 0.00 83 1011.4
20260508075513 41 0 0.0 2.0 0.00 0.00 0.00 83 1011.3
20260508075013 41 0 0.0 2.0 0.00 0.00 0.00 84 1011.3
20260508074531 41 285 0.0 2.0 0.00 0.00 0.00 83 1011.4
20260508074012 41 0 0.0 0.0 0.00 0.00 0.00 84 1011.4
20260508073514 41 0 0.0 0.0 0.00 0.00 0.00 82 1011.5
20260508073034 41 0 0.0 0.0 0.00 0.00 0.00 81 1011.5
20260508072514 41 0 0.0 0.0 0.00 0.00 0.00 82 1011.6
20260508072012 41 0 0.0 0.0 0.00 0.00 0.00 82 1011.6
20260508071535 41 0 0.0 0.0 0.00 0.00 0.00 82 1011.7
20260508071011 41 0 0.0 0.0 0.00 0.00 0.00 82 1011.7
20260508070514 41 0 0.0 0.0 0.00 0.00 0.00 82 1011.8
20260508070048 41 0 0.0 0.0 0.00 0.00 0.00 82 1011.7
20260508065517 41 0 0.0 0.0 0.00 0.00 0.00 81 1011.8
20260508065014 41 0 0.0 0.0 0.00 0.00 0.00 82 1011.9
20260508064535 41 0 0.0 0.0 0.00 0.00 0.00 82 1011.9
20260508064017 41 0 0.0 2.0 0.00 0.00 0.00 83 1012.0
20260508063512 41 0 0.0 2.0 0.00 0.00 0.00 84 1012.0
20260508063031 41 297 0.0 1.0 0.00 0.00 0.00 84 1012.1
20260508062514 41 0 0.0 0.0 0.00 0.00 0.00 83 1012.0
20260508062012 41 0 0.0 0.0 0.00 0.00 0.00 84 1012.0
20260508061534 41 0 0.0 0.0 0.00 0.00 0.00 84 1012.1
20260508061013 41 0 0.0 0.0 0.00 0.00 0.00 84 1012.3
20260508060514 41 0 0.0 0.0 0.00 0.00 0.00 82 1012.3
20260508060035 41 0 0.0 0.0 0.00 0.00 0.00 82 1012.2
20260508055513 41 0 0.0 1.0 0.00 0.00 0.00 82 1012.3
20260508055016 41 0 0.0 1.0 0.00 0.00 0.00 82 1012.3
20260508054541 41 0 0.0 1.0 0.00 0.00 0.00 83 1012.3
20260508054014 41 0 0.0 1.0 0.00 0.00 0.00 83 1012.3
20260508053515 41 0 0.0 1.0 0.00 0.00 0.00 82 1012.5
20260508053029 41 0 0.0 2.0 0.00 0.00 0.00 82 1012.5
20260508052515 41 316 0.0 2.0 0.00 0.00 0.00 83 1012.5
20260508052012 41 316 0.0 2.0 0.00 0.00 0.00 82 1012.5
20260508051529 41 0 0.0 5.0 0.00 0.00 0.00 82 1012.5
20260508051014 41 278 0.0 5.0 0.00 0.00 0.00 81 1012.7
20260508050514 41 266 1.0 4.0 0.00 0.00 0.00 76 1012.7
20260508050032 41 0 0.0 2.0 0.00 0.00 0.00 81 1012.6
20260508045513 41 0 0.0 2.0 0.00 0.00 0.00 79 1012.5
20260508045014 41 0 0.0 1.0 0.00 0.00 0.00 78 1012.7
20260508044533 41 0 0.0 0.0 0.00 0.00 0.00 79 1012.6
20260508044013 41 0 0.0 1.0 0.00 0.00 0.00 79 1012.5
20260508043514 41 0 0.0 1.0 0.00 0.00 0.00 79 1012.5
20260508043031 41 297 0.0 1.0 0.00 0.00 0.00 79 1012.4
20260508042512 41 0 0.0 1.0 0.00 0.00 0.00 78 1012.2
20260508042014 41 0 0.0 2.0 0.00 0.00 0.00 78 1012.2
20260508041531 40 0 0.0 2.0 0.00 0.00 0.00 78 1012.2
20260508041014 40 303 0.0 2.0 0.00 0.00 0.00 78 1012.3
20260508040514 40 0 0.0 1.0 0.00 0.00 0.00 78 1012.3
20260508040035 40 0 0.0 1.0 0.00 0.00 0.00 78 1012.5
20260508035513 40 0 0.0 0.0 0.00 0.00 0.00 77 1012.5
20260508035015 40 0 0.0 0.0 0.00 0.00 0.00 77 1012.4
20260508034537 40 0 0.0 0.0 0.00 0.00 0.00 78 1012.4
20260508034014 40 0 0.0 0.0 0.00 0.00 0.00 78 1012.4
20260508033512 40 0 0.0 0.0 0.00 0.00 0.00 78 1012.5
20260508033029 40 0 0.0 0.0 0.00 0.00 0.00 77 1012.5
20260508032515 40 0 0.0 0.0 0.00 0.00 0.00 75 1012.4
20260508032014 40 0 0.0 0.0 0.00 0.00 0.00 76 1012.3
20260508031534 40 0 0.0 0.0 0.00 0.00 0.00 76 1012.4
20260508031011 40 0 0.0 0.0 0.00 0.00 0.00 77 1012.3
20260508030514 40 0 0.0 0.0 0.00 0.00 0.00 77 1012.3
20260508030033 40 0 0.0 0.0 0.00 0.00 0.00 77 1012.4
20260508025519 40 0 0.0 0.0 0.00 0.00 0.00 78 1012.4
20260508025011 40 0 0.0 0.0 0.00 0.00 0.00 77 1012.3
20260508024530 40 0 0.0 0.0 0.00 0.00 0.00 78 1012.5
20260508024013 40 0 0.0 0.0 0.00 0.00 0.00 76 1012.5
20260508023515 40 0 0.0 0.0 0.00 0.00 0.00 76 1012.4
20260508023037 40 0 0.0 0.0 0.00 0.00 0.00 77 1012.4
20260508022513 40 0 0.0 0.0 0.00 0.00 0.00 76 1012.4
20260508022011 40 0 0.0 0.0 0.00 0.00 0.00 73 1012.3
20260508021551 41 0 0.0 0.0 0.00 0.00 0.00 73 1012.3
20260508021011 41 0 0.0 0.0 0.00 0.00 0.00 73 1012.3
20260508020510 41 0 0.0 0.0 0.00 0.00 0.00 73 1012.3
20260508020029 41 0 0.0 0.0 0.00 0.00 0.00 74 1012.4
20260508015512 41 0 0.0 0.0 0.00 0.00 0.00 72 1012.3
20260508015011 41 0 0.0 0.0 0.00 0.00 0.00 72 1012.2
20260508014530 41 0 0.0 0.0 0.00 0.00 0.00 71 1012.4
20260508014012 41 0 0.0 0.0 0.00 0.00 0.00 67 1012.2
20260508013510 42 0 0.0 0.0 0.00 0.00 0.00 68 1012.2
20260508013031 42 0 0.0 0.0 0.00 0.00 0.00 68 1012.2
20260508012511 42 0 0.0 0.0 0.00 0.00 0.00 66 1012.0
20260508012011 43 0 0.0 0.0 0.00 0.00 0.00 67 1012.0
20260508011529 43 0 0.0 0.0 0.00 0.00 0.00 66 1011.9
20260508011011 43 0 0.0 0.0 0.00 0.00 0.00 64 1011.9
20260508010512 43 0 0.0 0.0 0.00 0.00 0.00 64 1012.0
20260508010031 44 0 0.0 0.0 0.00 0.00 0.00 63 1011.9
20260508005510 44 0 0.0 1.0 0.00 0.00 0.00 63 1011.9
20260508005012 44 0 0.0 1.0 0.00 0.00 0.00 62 1011.9
20260508004532 45 0 0.0 1.0 0.00 0.00 0.00 62 1011.8
20260508004013 45 0 0.0 0.0 0.00 0.00 0.00 62 1011.8
20260508003514 45 0 0.0 1.0 0.00 0.00 0.00 61 1011.7
20260508003028 45 0 0.0 1.0 0.00 0.00 0.00 62 1011.8
20260508002510 45 0 0.0 3.0 0.00 0.00 0.00 59 1011.9
20260508002012 46 337 1.0 3.0 0.00 0.00 0.00 59 1011.8
20260508001544 46 327 0.0 3.0 0.00 0.00 0.00 59 1011.8
20260508001012 46 332 0.0 4.0 0.00 0.00 0.00 58 1011.8
20260508000511 46 333 1.0 4.0 0.00 0.00 0.00 58 1011.7
20260508000028 46 350 1.0 4.0 0.00 0.00 0.00 58 1011.6
20260507235512 47 294 1.0 4.0 0.00 0.00 0.00 57 1011.6
20260507235013 47 278 1.0 2.0 0.00 0.00 0.00 59 1011.5
20260507234530 47 324 0.0 3.0 0.00 0.00 0.00 56 1011.5
20260507234009 47 337 1.0 4.0 0.00 0.00 0.00 57 1011.4
20260507233513 47 341 1.0 5.0 0.00 0.00 0.00 57 1011.6
20260507233033 47 0 0.0 5.0 0.00 0.00 0.00 58 1011.6
20260507232508 48 331 2.0 5.0 0.00 0.00 0.00 56 1011.6
20260507232011 48 336 1.0 3.0 0.00 0.00 0.00 57 1011.6
20260507231528 48 318 1.0 4.0 0.00 0.00 0.00 56 1011.6
20260507231016 48 256 1.0 4.0 0.00 0.00 0.00 55 1011.6
20260507230514 49 274 2.0 4.0 0.00 0.00 0.00 54 1011.6
20260507230035 49 303 1.0 4.0 0.00 0.00 0.00 58 1011.5
20260507225514 49 306 0.0 6.0 0.00 0.00 0.00 56 1011.6
20260507225017 49 299 1.0 6.0 0.00 0.00 0.00 54 1011.5
20260507224535 49 348 2.0 4.0 0.00 0.00 0.00 57 1011.6
20260507224014 49 326 1.0 6.0 0.00 0.00 0.00 54 1011.6
20260507223514 50 302 2.0 7.0 0.00 0.00 0.00 54 1011.6
20260507223031 50 290 3.0 7.0 0.00 0.00 0.00 54 1011.6
20260507222512 50 278 2.0 8.0 0.00 0.00 0.00 56 1011.5
20260507222015 49 317 1.0 8.0 0.00 0.00 0.00 55 1011.5
20260507221531 50 329 2.0 8.0 0.00 0.00 0.00 53 1011.6
20260507221013 50 280 1.0 6.0 0.00 0.00 0.00 55 1011.6
20260507220514 50 328 2.0 8.0 0.00 0.00 0.00 54 1011.6
20260507220031 50 335 1.0 8.0 0.00 0.00 0.00 55 1011.6
20260507215515 50 347 3.0 7.0 0.00 0.00 0.00 53 1011.4
20260507215017 51 341 1.0 7.0 0.00 0.00 0.00 57 1011.5
20260507214530 51 320 3.0 6.0 0.00 0.00 0.00 53 1011.5
20260507214014 51 341 2.0 9.0 0.00 0.00 0.00 53 1011.4
20260507213512 51 272 1.0 9.0 0.00 0.00 0.00 52 1011.4
20260507213036 51 272 1.0 7.0 0.00 0.00 0.00 58 1011.5
20260507212516 51 332 0.0 6.0 0.00 0.00 0.00 56 1011.4
20260507212012 50 0 0.0 6.0 0.00 0.00 0.00 56 1011.6
20260507211543 50 0 0.0 3.0 0.00 0.00 0.00 60 1011.5
20260507211015 49 326 0.0 4.0 0.00 0.00 0.00 59 1011.4
20260507210512 48 344 0.0 4.0 0.00 0.00 0.00 62 1011.5
20260507210035 48 289 1.0 3.0 0.00 0.00 0.00 59 1011.5
20260507205513 48 325 1.0 3.0 0.00 0.00 0.00 58 1011.5
20260507205014 48 0 0.0 4.0 0.00 0.00 0.00 60 1011.4
20260507204533 48 277 1.0 4.0 0.00 0.00 0.00 57 1011.4
20260507204013 48 0 0.0 3.0 0.00 0.00 0.00 58 1011.4
20260507203513 48 277 1.0 3.0 0.00 0.00 0.00 57 1011.4
20260507203032 48 306 0.0 3.0 0.00 0.00 0.00 57 1011.4
20260507202512 48 0 0.0 5.0 0.00 0.00 0.00 58 1011.4
20260507202013 48 339 2.0 5.0 0.00 0.00 0.00 56 1011.3
20260507201541 48 330 1.0 4.0 0.00 0.00 0.00 57 1011.3
20260507201014 48 346 1.0 4.0 0.00 0.00 0.00 57 1011.3
20260507200512 49 274 1.0 6.0 0.00 0.00 0.00 57 1011.4
20260507200037 49 329 1.0 6.0 0.00 0.00 0.00 59 1011.3
20260507195514 49 297 2.0 6.0 0.00 0.00 0.00 56 1011.4
20260507195011 49 293 2.0 4.0 0.00 0.00 0.00 56 1011.3
20260507194529 49 278 1.0 4.0 0.00 0.00 0.00 56 1011.4
20260507194010 50 311 1.0 8.0 0.00 0.00 0.00 54 1011.3
20260507193510 50 284 2.0 8.0 0.00 0.00 0.00 55 1011.4
20260507193028 51 318 3.0 8.0 0.00 0.00 0.00 54 1011.4
20260507192511 51 303 2.0 6.0 0.00 0.00 0.00 54 1011.2
20260507192010 51 314 1.0 7.0 0.00 0.00 0.00 54 1011.3
20260507191531 51 305 2.0 7.0 0.00 0.00 0.00 53 1011.3
20260507191010 51 282 3.0 7.0 0.00 0.00 0.00 53 1011.2
20260507190512 51 318 2.0 8.0 0.00 0.00 0.00 52 1011.2
20260507190033 51 329 2.0 8.0 0.00 0.00 0.00 53 1011.3
20260507185512 51 272 2.0 8.0 0.00 0.00 0.00 52 1011.4
20260507185009 52 308 3.0 9.0 0.00 0.00 0.00 51 1011.4
20260507184528 52 297 3.0 9.0 0.00 0.00 0.00 51 1011.2
20260507184010 52 264 2.0 6.0 0.00 0.00 0.00 50 1011.2
20260507183511 53 265 2.0 8.0 0.00 0.00 0.00 47 1011.1
20260507183033 53 293 3.0 8.0 0.00 0.00 0.00 48 1011.2
20260507182512 53 272 2.0 6.0 0.00 0.00 0.00 48 1011.2
20260507182010 54 262 2.0 9.0 0.00 0.00 0.00 45 1011.2
20260507181528 54 223 2.0 9.0 0.00 0.00 0.00 45 1011.1
20260507181012 54 280 4.0 9.0 0.00 0.00 0.00 44 1011.1
20260507180510 53 272 1.0 8.0 0.00 0.00 0.00 49 1011.1
20260507180044 53 266 3.0 8.0 0.00 0.00 0.00 46 1011.2
20260507175510 53 331 2.0 8.0 0.00 0.00 0.00 49 1011.2
20260507175009 53 263 3.0 9.0 0.00 0.00 0.00 44 1011.2
20260507174528 53 284 4.0 9.0 0.00 0.00 0.00 45 1011.4
20260507174010 53 264 2.0 8.0 0.00 0.00 0.00 47 1011.4
20260507173514 53 298 3.0 8.0 0.00 0.00 0.00 47 1011.4
20260507173030 54 277 2.0 8.0 0.00 0.00 0.00 46 1011.5
20260507172511 54 295 3.0 9.0 0.00 0.00 0.00 48 1011.5
20260507172010 53 271 4.0 10.0 0.00 0.00 0.00 46 1011.5
20260507171530 53 264 3.0 10.0 0.00 0.00 0.00 51 1011.6
20260507171014 53 268 3.0 9.0 0.00 0.00 0.00 50 1011.8
20260507170513 53 268 3.0 9.0 0.00 0.00 0.00 48 1011.7
20260507170044 52 338 3.0 9.0 0.00 0.00 0.00 52 1011.8
20260507165514 52 329 2.0 9.0 0.00 0.00 0.00 55 1012.0
20260507165012 52 359 3.0 8.0 0.00 0.00 0.00 50 1011.9
20260507164531 52 255 2.0 11.0 0.00 0.00 0.00 51 1011.9
20260507164012 52 332 3.0 11.0 0.00 0.00 0.00 52 1012.0
20260507163514 51 253 2.0 5.0 0.00 0.00 0.00 56 1012.0
20260507163031 51 296 1.0 5.0 0.00 0.00 0.00 53 1012.1
20260507162512 51 314 1.0 7.0 0.00 0.00 0.00 56 1012.2
20260507162014 51 283 2.0 7.0 0.00 0.00 0.00 52 1012.2
20260507161531 51 147 1.0 6.0 0.00 0.00 0.00 54 1012.1
20260507161015 51 299 2.0 7.0 0.00 0.00 0.00 54 1012.1
20260507160512 52 261 2.0 7.0 0.00 0.00 0.00 56 1012.2
20260507160030 51 302 2.0 7.0 0.00 0.00 0.00 56 1012.3
20260507155513 51 0 1.0 5.0 0.00 0.00 0.00 54 1012.2
20260507155012 51 311 1.0 6.0 0.00 0.00 0.00 52 1012.3
20260507154530 52 262 2.0 9.0 0.00 0.00 0.00 54 1012.4
20260507154017 52 341 2.0 9.0 0.00 0.00 0.00 51 1012.3